Location: Unnamed Road
(35.9029°N, 51.9749°E)
Time: 09:44:58
(UTC+04:30)

Transit 2A Rocket - Visible Passes

Search period start: 28 May 2020 00:00
Search period end: 07 June 2020 00:00
Orbit: 585 x 918 km, 66.7° (Epoch: 27 May)

Date Brightness Start Highest point End Pass type
(mag) Time Alt. Az. Time Alt. Az. Time Alt. Az.
28 May 6.1 00:30:33 39° NW 00:30:33 39° NW 00:35:01 10° NNE visible
28 May 5.5 23:48:22 54° N 23:48:22 54° N 23:52:38 10° NNE visible
29 May 7.7 01:29:46 10° NW 01:31:00 11° NW 01:32:15 10° NNW visible
29 May 5.5 23:06:04 45° ENE 23:06:04 45° ENE 23:10:01 10° NE visible
30 May 7.2 00:45:54 14° WNW 00:47:55 18° NW 00:51:31 10° N visible
30 May 6.0 22:23:36 28° E 22:23:36 28° E 22:27:02 10° NE visible
31 May 6.6 00:03:26 24° W 00:04:59 29° NW 00:09:40 10° N visible
31 May 6.5 21:40:56 16° E 21:40:56 16° E 21:43:26 10° ENE visible
31 May 5.7 23:20:44 38° WSW 23:22:12 50° WNW 23:27:27 10° NNE visible
01 Jun 4.8 22:37:45 40° SSW 22:39:35 90° SE 22:45:00 10° NNE visible
02 Jun 7.7 00:20:43 10° WNW 00:23:06 13° NW 00:25:35 10° NNW visible
02 Jun 5.1 21:54:15 22° S 21:57:08 48° ESE 22:02:15 10° NE visible
02 Jun 7.3 23:36:14 10° W 23:40:04 21° NW 23:44:10 10° N visible
03 Jun 5.9 21:10:51 10° SSE 21:14:50 26° ESE 21:19:08 10° NE visible
03 Jun 6.5 22:52:38 10° WSW 22:57:11 35° NW 23:02:10 10° N visible
04 Jun 5.4 22:09:36 10° SW 22:14:27 62° WNW 22:19:52 10° NNE visible
05 Jun 8.8 05:16:06 10° NNE 05:17:34 11° NE 05:19:02 10° NE visible
05 Jun 4.8 21:27:02 10° SSW 21:31:54 73° ESE 21:37:18 10° NNE visible
05 Jun 7.8 23:12:08 10° W 23:15:13 16° NW 23:18:27 10° N visible
06 Jun 5.4 20:45:00 10° S 20:49:29 39° ESE 20:54:27 10° NE visible
06 Jun 7.3 22:28:03 10° WSW 22:32:14 25° NW 22:36:45 10° N visible
